TimeEDT,TemperatureF,Dew PointF,Humidity,Sea Level PressureIn,VisibilityMPH,Wind Direction,Wind SpeedMPH,Gust SpeedMPH,PrecipitationIn,Events,Conditions,WindDirDegrees,DateUTC
12:58 AM,64.6,64.6,100,29.60,10.0,WSW,6.9,-,N/A,,Scattered Clouds,240,2013-06-29 04:58:00
1:58 AM,63.7,63.7,100,29.59,10.0,West,4.6,-,N/A,,Clear,280,2013-06-29 05:58:00
2:58 AM,62.8,62.8,100,29.59,10.0,WSW,3.5,-,N/A,,Clear,250,2013-06-29 06:58:00
3:58 AM,62.6,62.6,100,29.59,10.0,West,3.5,-,N/A,,Clear,280,2013-06-29 07:58:00
4:18 AM,62.6,62.6,100,29.58,7.0,WNW,1.2,-,N/A,,Clear,300,2013-06-29 08:18:00
4:38 AM,62.6,62.6,100,29.58,4.0,WSW,2.3,-,N/A,,Clear,250,2013-06-29 08:38:00
4:43 AM,60.8,60.8,100,29.58,1.5,West,2.3,-,N/A,,Clear,260,2013-06-29 08:43:00
4:48 AM,60.8,60.8,100,29.58,1.2,West,2.3,-,N/A,,Clear,260,2013-06-29 08:48:00
4:53 AM,60.8,60.8,100,29.58,2.0,WSW,3.5,-,N/A,,Clear,250,2013-06-29 08:53:00
4:58 AM,61.3,61.3,100,29.58,3.0,WSW,3.5,-,N/A,,Clear,250,2013-06-29 08:58:00
5:08 AM,60.8,60.8,100,29.58,4.0,WSW,3.5,-,N/A,,Clear,240,2013-06-29 09:08:00
5:13 AM,60.8,60.8,100,29.58,3.0,WSW,4.6,-,N/A,,Clear,240,2013-06-29 09:13:00
5:18 AM,60.8,60.8,100,29.58,1.5,WSW,2.3,-,N/A,,Clear,250,2013-06-29 09:18:00
5:23 AM,60.8,60.8,100,29.58,1.0,Calm,Calm,-,N/A,,Clear,0,2013-06-29 09:23:00
5:33 AM,60.8,60.8,100,29.59,1.2,Calm,Calm,-,N/A,,Clear,0,2013-06-29 09:33:00
5:38 AM,60.8,60.8,100,29.59,2.5,West,1.2,-,N/A,,Clear,280,2013-06-29 09:38:00
5:43 AM,60.8,60.8,100,29.59,5.0,West,2.3,-,N/A,,Clear,280,2013-06-29 09:43:00
5:48 AM,60.8,60.8,100,29.59,2.5,WNW,3.5,-,N/A,,Clear,290,2013-06-29 09:48:00
5:49 AM,60.8,60.8,100,29.59,2.5,WNW,3.5,-,N/A,,Partly Cloudy,290,2013-06-29 09:49:00
5:54 AM,60.8,60.8,100,29.59,2.0,West,4.6,-,N/A,,Partly Cloudy,280,2013-06-29 09:54:00
5:58 AM,61.3,61.3,100,29.59,2.0,West,4.6,-,N/A,,Scattered Clouds,280,2013-06-29 09:58:00
6:03 AM,60.8,60.8,100,29.59,3.0,West,3.5,-,N/A,,Mostly Cloudy,280,2013-06-29 10:03:00
6:08 AM,60.8,60.8,100,29.59,2.0,West,3.5,-,N/A,,Mostly Cloudy,280,2013-06-29 10:08:00
6:13 AM,60.8,60.8,100,29.59,0.8,WSW,3.5,-,N/A,,Mist,250,2013-06-29 10:13:00
6:18 AM,62.6,62.6,100,29.59,0.2,WSW,3.5,-,N/A,Fog,Fog,240,2013-06-29 10:18:00
6:23 AM,62.6,62.6,100,29.59,0.2,WSW,3.5,-,N/A,Fog,Fog,240,2013-06-29 10:23:00
6:58 AM,62.8,62.8,100,29.60,0.1,West,3.5,-,N/A,Fog,Fog,280,2013-06-29 10:58:00
7:23 AM,62.6,62.6,100,29.60,0.2,West,3.5,-,N/A,Fog,Fog,260,2013-06-29 11:23:00
7:28 AM,62.6,62.6,100,29.60,0.4,NW,1.2,-,N/A,Fog,Fog,320,2013-06-29 11:28:00
7:33 AM,62.6,62.6,100,29.60,0.5,Calm,Calm,-,N/A,Fog,Fog,0,2013-06-29 11:33:00
7:43 AM,64.4,64.4,100,29.60,0.8,West,4.6,-,N/A,,Overcast,260,2013-06-29 11:43:00
7:48 AM,64.4,64.4,100,29.60,1.5,West,4.6,-,N/A,,Overcast,270,2013-06-29 11:48:00
7:58 AM,64.4,64.4,100,29.60,1.8,West,4.6,-,N/A,,Overcast,280,2013-06-29 11:58:00
8:13 AM,64.4,64.4,100,29.61,4.0,West,4.6,-,N/A,,Overcast,280,2013-06-29 12:13:00
8:23 AM,64.4,64.4,100,29.61,5.0,WNW,4.6,-,N/A,,Overcast,290,2013-06-29 12:23:00
8:33 AM,64.4,64.4,100,29.61,5.0,WNW,4.6,-,N/A,,Overcast,290,2013-06-29 12:33:00
8:43 AM,64.4,64.4,100,29.61,5.0,West,4.6,-,N/A,,Overcast,260,2013-06-29 12:43:00
8:58 AM,65.1,65.1,100,29.61,5.0,West,4.6,-,N/A,,Overcast,260,2013-06-29 12:58:00
9:58 AM,67.3,65.8,95,29.61,6.0,Calm,Calm,-,N/A,,Mostly Cloudy,0,2013-06-29 13:58:00
10:35 AM,68.0,64.4,88,29.62,6.0,WNW,3.5,-,N/A,,Mostly Cloudy,300,2013-06-29 14:35:00
10:58 AM,68.9,65.3,88,29.61,10.0,WNW,3.5,-,N/A,,Mostly Cloudy,290,2013-06-29 14:58:00
11:18 AM,69.8,66.2,88,29.61,10.0,West,3.5,-,N/A,,Mostly Cloudy,270,2013-06-29 15:18:00
11:51 AM,68.0,68.0,100,29.61,9.0,SW,6.9,-,N/A,,Light Drizzle,220,2013-06-29 15:51:00
11:58 AM,68.4,67.3,96,29.61,8.0,SW,5.8,-,0.00,Rain,Light Rain,220,2013-06-29 15:58:00
12:07 PM,68.0,68.0,100,29.62,9.0,SW,4.6,-,N/A,,Overcast,220,2013-06-29 16:07:00
12:14 PM,68.0,68.0,100,29.62,7.0,SW,4.6,-,N/A,Rain,Light Rain,220,2013-06-29 16:14:00
12:32 PM,68.0,66.2,94,29.62,10.0,SW,4.6,-,N/A,,Mostly Cloudy,220,2013-06-29 16:32:00
12:37 PM,68.0,66.2,94,29.62,10.0,Variable,2.3,-,N/A,,Mostly Cloudy,0,2013-06-29 16:37:00
12:58 PM,69.3,67.3,93,29.62,10.0,South,5.8,-,0.00,,Mostly Cloudy,190,2013-06-29 16:58:00
1:38 PM,69.8,66.2,88,29.61,10.0,West,3.5,-,N/A,Rain,Light Rain,270,2013-06-29 17:38:00
1:42 PM,69.8,66.2,88,29.61,9.0,West,4.6,-,N/A,Rain,Light Rain,260,2013-06-29 17:42:00
1:59 PM,70.0,68.2,94,29.61,10.0,WSW,4.6,-,0.00,,Mostly Cloudy,250,2013-06-29 17:59:00
2:24 PM,71.6,68.0,88,29.62,10.0,WSW,8.1,-,N/A,,Mostly Cloudy,240,2013-06-29 18:24:00
2:29 PM,71.6,68.0,88,29.62,10.0,SW,6.9,-,N/A,,Mostly Cloudy,230,2013-06-29 18:29:00
2:39 PM,69.8,68.0,94,29.62,10.0,WSW,9.2,-,N/A,,Overcast,250,2013-06-29 18:39:00
2:46 PM,69.8,68.0,94,29.62,8.0,WNW,11.5,-,N/A,Rain,Light Rain,290,2013-06-29 18:46:00
2:47 PM,69.8,68.0,94,29.62,6.0,WNW,10.4,-,N/A,Rain,Light Rain,290,2013-06-29 18:47:00
2:52 PM,68.0,66.2,94,29.62,2.5,NW,10.4,-,N/A,Rain,Heavy Rain,320,2013-06-29 18:52:00
2:57 PM,68.0,64.4,88,29.63,1.8,WNW,6.9,-,N/A,Rain,Heavy Rain,300,2013-06-29 18:57:00
2:58 PM,68.0,64.4,88,29.63,1.8,NW,6.9,-,0.07,Rain,Heavy Rain,310,2013-06-29 18:58:00
3:03 PM,68.0,64.4,88,29.63,2.0,WNW,5.8,-,N/A,Rain,Heavy Rain,300,2013-06-29 19:03:00
3:08 PM,68.0,62.6,83,29.63,1.8,West,2.3,-,N/A,Rain,Heavy Rain,270,2013-06-29 19:08:00
3:13 PM,68.0,64.4,88,29.62,2.0,West,3.5,-,N/A,Rain,Rain,270,2013-06-29 19:13:00
3:18 PM,68.0,68.0,100,29.62,4.0,WSW,5.8,-,N/A,Rain,Rain,250,2013-06-29 19:18:00
3:23 PM,68.0,68.0,100,29.63,5.0,SW,5.8,-,N/A,Rain,Light Rain,230,2013-06-29 19:23:00
3:38 PM,68.0,68.0,100,29.63,6.0,WSW,9.2,-,N/A,Rain-Thunderstorm,Light Rain,250,2013-06-29 19:38:00
3:42 PM,68.0,68.0,100,29.62,6.0,WSW,10.4,-,N/A,Rain-Thunderstorm,Light Thunderstorms and Rain,240,2013-06-29 19:42:00
3:47 PM,68.0,68.0,100,29.62,6.0,SW,10.4,-,N/A,Rain-Thunderstorm,Light Thunderstorms and Rain,230,2013-06-29 19:47:00
3:57 PM,68.0,68.0,100,29.63,6.0,SW,6.9,-,N/A,Rain-Thunderstorm,Light Rain,230,2013-06-29 19:57:00
3:58 PM,68.4,68.4,100,29.63,6.0,SW,6.9,-,0.13,Rain-Thunderstorm,Light Rain,230,2013-06-29 19:58:00
4:08 PM,68.0,68.0,100,29.63,6.0,WSW,5.8,-,N/A,Rain,Light Rain,250,2013-06-29 20:08:00
4:43 PM,68.0,68.0,100,29.62,6.0,NNW,3.5,-,N/A,Rain,Light Rain,340,2013-06-29 20:43:00
4:48 PM,68.0,68.0,100,29.62,5.0,North,4.6,-,N/A,Rain,Light Rain,10,2013-06-29 20:48:00
4:49 PM,68.0,68.0,100,29.62,6.0,North,4.6,-,N/A,Rain,Light Rain,10,2013-06-29 20:49:00
4:58 PM,68.5,68.2,99,29.62,7.0,North,5.8,-,0.02,Rain,Light Rain,10,2013-06-29 20:58:00
5:58 PM,67.6,64.4,89,29.63,10.0,North,4.6,-,0.01,,Light Drizzle,360,2013-06-29 21:58:00
6:16 PM,68.0,64.4,88,29.62,10.0,NNW,2.3,-,N/A,,Scattered Clouds,330,2013-06-29 22:16:00
6:58 PM,68.4,62.8,82,29.64,10.0,WSW,6.9,-,0.00,,Overcast,240,2013-06-29 22:58:00
7:23 PM,66.2,64.4,94,29.65,10.0,NW,5.8,-,N/A,,Overcast,320,2013-06-29 23:23:00
7:43 PM,66.2,64.4,94,29.65,10.0,NNW,8.1,-,N/A,,Overcast,330,2013-06-29 23:43:00
7:55 PM,66.2,64.4,94,29.66,10.0,North,6.9,-,N/A,Rain,Light Rain,350,2013-06-29 23:55:00
7:58 PM,65.5,64.2,96,29.66,10.0,North,5.8,-,0.00,Rain,Light Rain,360,2013-06-29 23:58:00
8:18 PM,64.4,64.4,100,29.67,10.0,NW,6.9,-,N/A,Rain,Light Rain,320,2013-06-30 00:18:00
8:28 PM,64.4,64.4,100,29.67,4.0,NW,4.6,-,N/A,Rain,Light Rain,310,2013-06-30 00:28:00
8:37 PM,64.4,64.4,100,29.68,6.0,West,6.9,-,N/A,,Overcast,270,2013-06-30 00:37:00
8:58 PM,64.6,64.6,100,29.68,10.0,WNW,5.8,-,0.05,,Overcast,300,2013-06-30 00:58:00
9:36 PM,64.4,64.4,100,29.67,10.0,NW,8.1,-,N/A,,Light Drizzle,320,2013-06-30 01:36:00
9:58 PM,64.0,64.0,100,29.67,10.0,NNW,8.1,-,0.00,,Light Drizzle,340,2013-06-30 01:58:00
10:45 PM,64.4,64.4,100,29.70,9.0,North,4.6,-,N/A,,Overcast,360,2013-06-30 02:45:00
10:58 PM,64.2,64.2,100,29.70,10.0,North,5.8,-,0.01,,Overcast,360,2013-06-30 02:58:00
11:23 PM,64.4,64.4,100,29.70,10.0,North,4.6,-,N/A,,Overcast,350,2013-06-30 03:23:00
11:58 PM,64.2,64.2,100,29.69,10.0,North,6.9,-,N/A,,Overcast,350,2013-06-30 03:58:00